Location: Härggis
(46.9540°N, 8.4897°E)
Time: 01:36:25
(UTC+00:00)

Cosmos 2237 Rocket - Pass Details

Date: 27 May 2022
Orbit: 833 x 851 km, 71.0° (Epoch: 26 June)

Event Time Altitude Azimuth Distance (km) Brightness Sun altitude
Exits shadow 00:56:58 27° 237° (WSW) 1,580 3.2 -18.6°
Maximum altitude 00:59:56 54° 302° (WNW) 1,028 2.6 -18.4°
Drops below altitude 10° 01:05:32 10° 20° (NNE) 2,487 5.9 -18.0°
Sets 01:08:04 0° 25° (NNE) 3,427 7.1 -17.8°
